This is the latest recevied weather packets stored in our database for station/object NUUKSIO. If no packets are shown the sender has not sent any weather packets the latest 10 day(s).
| Time | Temp. | Humidity | Pressure | Rain* | Wind** | Luminosity | Snow |
|---|---|---|---|---|---|---|---|
| 1777434407 | 1.67° C | 56% | 1024.9 hPa | 0 mm | - | - | - |
| 1777433207 | 1.11° C | 58% | 1024.8 hPa | 0 mm | - | - | - |
| 1777432007 | 1.11° C | 58% | 1024.5 hPa | 0 mm | - | - | - |
| 1777430807 | 1.11° C | 58% | 1024.3 hPa | 0 mm | - | - | - |
| 1777429607 | 1.11° C | 58% | 1024.1 hPa | 0 mm | - | - | - |
| 1777428407 | 1.11° C | 58% | 1024.1 hPa | 0 mm | - | - | - |
| 1777427206 | 1.67° C | 59% | 1024 hPa | 0 mm | - | - | - |
| 1777426006 | 1.67° C | 56% | 1023.8 hPa | 0 mm | - | - | - |
| 1777424807 | 1.67° C | 58% | 1023.6 hPa | 0 mm | - | - | - |
| 1777423606 | 1.67° C | 57% | 1023.5 hPa | 0 mm | - | - | - |
| 1777422407 | 1.67° C | 58% | 1023.4 hPa | 0 mm | - | - | - |
| 1777421206 | 1.67° C | 56% | 1023.5 hPa | 0 mm | - | - | - |
| 1777420006 | 1.67° C | 57% | 1023.4 hPa | 0 mm | - | - | - |
| 1777418806 | 1.67° C | 55% | 1023.3 hPa | 0 mm | - | - | - |
| 1777417606 | 1.67° C | 55% | 1023.3 hPa | 0 mm | - | - | - |
| 1777416406 | 1.11° C | 58% | 1023.2 hPa | 0 mm | - | - | - |
| 1777415207 | 1.11° C | 59% | 1023.2 hPa | 0 mm | - | - | - |
| 1777414006 | 0.56° C | 60% | 1023.1 hPa | 0 mm | - | - | - |
| 1777412806 | -0.56° C | 63% | 1023.1 hPa | 0 mm | - | - | - |
| 1777411605 | 0° C | 61% | 1023 hPa | 0 mm | - | - | - |
| 1777410406 | 0° C | 61% | 1022.8 hPa | 0 mm | - | - | - |
| 1777409205 | 0.56° C | 58% | 1022.7 hPa | 0 mm | - | - | - |
| 1777408006 | 0.56° C | 57% | 1022.6 hPa | 0 mm | - | - | - |
| 1777406805 | 0.56° C | 60% | 1022.6 hPa | 0 mm | - | - | - |
| 1777405605 | 1.11° C | 55% | 1022.5 hPa | 0 mm | - | - | - |
* Rain latest hour (hover to see other rain measurements)
** Current wind speed in m/s (hover to see current wind gust speed)